CAPE
0 0 0 0 0 0 0 0 0 0 0 0 22 4 0 0 0 0 0 11 212 255 145 183 173 36 0 51 263 198 171 158 159 232 164 224 416 465 518 416 324 121 0
0 0 0 0 0 0 0 0 0 0 0 0 0 16 21 0 0 0 0 38 13 145 108 101 118 133 57 13 22 116 172 71 79 190 230 270 357 384 298 359 226 143 12
0 0 0 0 0 0 0 0 0 0 0 0 0 2 16 8 0 0 0 1 138 46 128 110 163 93 0 1 1 1 0 39 152 93 230 220 200 164 178 166 163 110 31
0 0 0 0 1 2 0 0 0 0 0 0 0 0 23 23 10 28 19 12 21 294 438 208 80 59 45 15 26 12 22 2 10 169 177 114 113 79 115 31 8 6 0
1 1 0 0 0 0 0 0 0 4 0 0 0 0 0 11 67 42 95 93 144 194 238 282 227 128 204 233 77 26 1 0 0 38 77 58 98 108 64 0 1 0 0
0 0 0 0 0 0 2 1 0 2 0 0 0 0 0 7 70 19 160 97 405 271 196 152 113 22 4 0 0 0 0 0 4 52 44 64 68 36 0 0 0 0 0
0 1 0 0 0 0 0 2 1 0 1 2 2 4 0 2 28 86 80 30 215 196 199 149 37 0 0 0 1 0 0 0 27 1 6 33 1 0 0 0 0 0 0
1 1 1 1 1 1 1 2 3 2 0 0 0 7 13 6 29 34 17 0 48 65 147 123 26 0 0 0 0 0 0 4 15 1 48 3 0 0 0 0 0 0 0
2 1 1 1 1 1 2 2 1 3 2 4 1 1 5 20 18 0 0 8 27 83 21 14 16 0 0 0 0 0 0 0 0 0 0 0 0 0 0 0 0 0 0
1 1 1 1 1 2 1 2 4 6 4 1 0 7 3 0 10 0 0 0 2 2 182 85 46 21 0 0 0 0 0 0 0 0 0 0 0 0 0 0 0 0 0
1 1 1 3 5 1 1 2 5 3 1 0 0 0 2 0 4 0 0 0 3 0 10 15 22 0 0 0 0 1 4 0 0 0 0 0 0 0 0 0 0 0 0
2 2 1 5 7 12 10 7 6 2 3 0 0 0 0 0 0 0 0 0 0 0 32 8 0 0 0 0 0 0 0 0 0 0 0 0 0 0 0 0 0 0 167
3 2 1 4 2 3 6 2 3 1 3 1 0 0 0 6 0 0 0 0 0 12 26 8 0 0 0 0 0 0 0 0 0 0 0 0 0 0 0 82 114 73 75
3 1 1 1 2 2 1 2 2 0 2 2 4 0 1 10 1 0 0 0 13 33 0 0 0 0 0 0 0 0 0 0 0 0 0 0 0 45 144 360 216 119 83
4 4 1 1 0 0 1 3 0 0 0 1 0 18 10 1 0 0 0 2 15 10 0 0 0 0 0 0 0 0 0 0 0 0 0 0 0 0 0 11 232 180 157
7 3 1 0 0 0 0 0 0 0 0 0 0 0 3 0 0 0 0 0 1 0 0 0 0 0 0 0 0 0 0 0 0 0 0 0 0 0 5 169 270 306 211
5 3 2 0 0 1 0 0 0 0 0 0 0 0 0 0 0 0 0 2 0 0 0 0 0 0 0 0 0 0 0 0 0 0 0 0 0 0 14 37 353 308 319
5 3 5 2 0 0 0 14 0 0 0 0 0 0 0 0 0 0 0 0 0 0 0 0 0 0 0 0 0 0 0 0 0 0 0 0 0 0 33 82 112 391 430
5 5 6 2 0 0 0 0 10 1 0 0 0 0 0 0 0 0 9 0 0 0 0 0 0 0 0 0 0 0 0 0 0 0 0 0 0 0 64 84 112 144 420
5 5 4 4 3 1 0 0 0 1 0 0 0 0 0 0 5 4 1 1 0 0 0 0 0 0 0 0 0 0 0 0 0 0 0 0 0 0 50 105 80 44 203
3 4 4 5 3 6 3 1 0 0 0 0 0 0 0 0 0 6 0 0 0 0 0 0 0 0 0 0 0 0 0 0 0 0 0 0 0 0 99 127 109 115 95
1 2 3 5 6 5 6 5 3 0 0 0 0 0 0 0 0 0 0 0 0 0 0 0 0 0 0 0 0 0 0 0 0 0 0 0 0 0 0 30 152 97 29
1 2 3 3 4 5 6 6 7 5 3 1 0 0 0 0 0 0 0 0 0 0 0 0 0 0 0 0 0 0 0 0 0 0 0 0 0 0 0 0 35 69 12
1 2 1 2 3 4 6 7 7 7 6 5 4 3 0 0 0 0 0 0 0 0 0 0 0 0 0 0 0 0 0 0 0 0 0 0 0 0 0 0 32 42 5
1 2 2 1 1 2 4 4 6 6 7 6 8 7 3 5 1 0 0 0 0 0 0 0 0 0 0 0 0 0 0 0 0 0 0 0 0 0 0 0 29 0 1
0 0 1 1 1 0 1 2 3 4 6 6 6 7 6 7 6 4 1 0 0 0 0 0 0 0 0 0 0 0 0 0 0 0 0 0 0 0 0 0 1 0 0
CIN
0 0 0 0 0 0 0 0 0 0 0 0 -95 -96 0 0 0 0 0 -23 -7 -8 -37 -88 -125 -172 0 -83 -2 -8 -59 -69 -33 -70 -164 -147 -121 -101 -105 -108 -124 -190 0
0 0 0 0 0 0 0 0 0 0 0 0 0 -106 -92 0 0 0 0 -51 -62 -21 -57 -79 -109 -94 -127 -237 -182 -49 -21 -110 -63 -25 -85 -89 -95 -102 -89 -76 -105 -167 -114
0 0 0 0 0 0 0 0 0 0 0 0 0 -48 -95 -111 0 0 0 -4 -27 -70 -65 -59 -51 -139 -1 -156 -27 -95 0 -19 -10 -6 -22 -70 -80 -102 -81 -104 -117 -142 -140
0 -1 0 -1 -1 -1 0 0 0 -1 0 0 0 0 -51 -82 -112 -89 -91 -62 -26 -25 -25 -57 -83 -168 -164 -75 -67 -40 -115 -129 -80 -20 -18 -47 -79 -132 -83 -118 -197 -80 0
0 0 0 0 0 0 0 0 -2 -1 -2 0 0 0 0 -50 -60 -63 -88 -103 -67 -59 -77 -77 -75 -123 -131 -115 -167 -200 -62 0 -19 -109 -43 -37 -55 -85 -86 -22 -46 0 0
0 0 0 -1 0 0 0 0 -1 -5 0 0 0 0 0 -20 -51 -70 -97 -95 -25 -55 -90 -137 -146 -159 -250 0 0 0 0 0 -93 -140 -99 -20 -68 -104 0 0 0 0 0
0 0 0 0 0 0 0 0 0 0 -1 -3 -4 -1 0 -11 -52 -95 -118 -109 -37 -33 -92 -132 -179 0 0 0 -205 -49 0 -2 -21 -6 -25 -55 -27 0 0 0 0 0 0
0 0 0 0 0 0 0 0 0 -1 0 0 0 -4 -7 -6 -64 -113 -120 -8 -72 -72 -60 -111 -187 0 0 0 0 0 -3 -64 -75 -52 -49 -28 0 0 0 0 0 0 0
0 0 0 0 0 0 0 0 0 0 0 -1 -1 -2 -19 -18 -66 -7 0 -134 -95 -51 -170 -207 -147 0 0 0 0 0 0 -19 0 0 0 0 0 0 0 0 0 0 0
0 0 0 0 0 0 0 0 0 0 0 -5 0 -12 -40 -4 -75 0 0 0 0 -79 -2 -65 -80 -56 -12 0 0 0 0 0 0 0 0 0 0 0 0 0 0 0 0
0 0 0 -2 0 0 0 0 0 0 0 0 0 0 -15 0 -56 0 0 0 0 0 -38 -46 -119 -76 0 0 -23 -82 -47 0 0 0 0 0 0 0 0 0 0 0 0
0 0 0 0 0 0 -1 0 0 0 0 -6 0 0 -13 0 0 0 0 0 -26 -7 -1 -70 -99 0 0 0 0 0 0 0 0 0 0 0 0 0 0 0 0 0 -67
0 0 0 0 0 0 0 0 0 0 0 -9 0 0 0 -14 0 0 0 0 0 -4 -59 -108 -12 0 0 0 0 0 0 0 0 0 0 0 0 0 0 -56 -107 -165 -152
0 0 0 0 0 -2 -1 -1 0 0 0 0 -10 0 -4 -7 0 0 0 0 -44 -28 0 0 0 0 0 0 0 0 0 0 0 0 0 0 0 -111 -44 -20 -42 -108 -110
0 0 0 0 0 -1 -2 -1 0 0 0 0 0 -16 -11 -18 0 0 0 0 -39 -84 0 0 0 0 0 0 0 0 0 0 0 0 0 0 0 0 0 -123 -28 -50 -57
0 0 0 0 0 0 0 0 0 0 0 0 0 0 -33 0 0 0 0 -15 -19 0 0 0 0 0 0 0 0 0 0 0 0 0 0 0 0 0 -216 -41 -25 -20 -53
0 0 0 0 0 0 0 0 0 0 0 0 0 -2 -2 0 0 0 0 -76 0 0 0 0 0 0 0 0 0 0 0 0 0 0 0 0 0 0 -244 -191 -16 -29 -33
0 0 0 0 -1 0 -2 -4 0 0 0 0 0 0 0 0 0 0 -1 0 0 0 0 0 0 0 0 0 0 0 0 0 0 0 0 0 0 0 -245 -193 -182 -54 -44
0 0 0 0 0 -6 0 -6 -16 -21 0 0 0 0 0 0 0 0 -27 -5 0 0 0 0 0 0 0 0 0 0 0 0 0 0 0 0 0 0 -208 -225 -216 -213 -62
0 0 0 0 0 -7 0 0 0 -25 0 0 0 0 0 -2 -14 -21 -13 -8 0 0 0 0 0 0 0 0 0 0 0 0 0 0 0 0 0 0 -263 -207 -234 -254 -130
0 0 0 0 0 0 0 -3 0 0 0 0 0 0 0 0 0 -26 0 0 0 0 0 0 0 0 0 0 0 0 0 0 0 0 0 0 0 0 -178 -162 -182 -179 -218
0 0 0 0 0 0 0 0 0 0 0 0 0 0 0 0 0 0 0 0 0 0 0 0 0 0 0 0 0 0 0 0 0 0 0 0 0 0 0 -178 -125 -180 -242
0 0 0 0 0 0 0 0 0 0 0 0 0 0 0 0 0 0 0 0 0 0 0 0 0 0 0 0 0 0 0 0 0 0 0 0 0 0 0 0 -196 -165 -223
0 0 0 0 0 0 0 0 0 0 0 0 0 0 0 0 0 0 0 0 0 0 0 0 0 0 0 0 0 0 0 0 0 0 0 0 0 0 0 0 -188 -165 -43
0 0 0 0 0 0 0 0 0 0 0 0 0 0 0 0 0 0 0 0 0 0 0 0 0 0 0 0 0 0 0 0 0 0 0 0 0 0 0 0 -174 0 -15
0 0 0 0 0 0 0 0 0 0 0 0 0 0 0 0 0 0 0 0 0 0 0 0 0 0 0 0 0 0 0 0 0 0 0 0 0 0 0 -42 -37 0 0
Wind_Speed
48 49 49 48 48 48 47 46 45 43 43 42 41 42 42 42 44 47 48 47 48 48 45 42 42 38 32 23 39 44 43 39 37 39 29 23 20 18 14 13 20 20 20
53 55 56 56 54 53 50 48 46 46 45 44 43 43 42 43 42 44 47 47 48 49 47 42 39 33 28 23 26 29 33 38 39 36 32 29 23 22 14 16 19 20 20
51 51 50 50 51 52 52 50 49 49 47 45 44 45 46 45 46 45 45 47 48 48 46 43 39 34 33 31 30 33 37 30 31 41 34 30 28 24 21 21 21 21 22
47 46 47 48 48 46 46 50 50 46 46 46 45 44 45 46 48 46 47 48 48 49 46 43 38 36 35 35 38 41 34 42 28 48 36 28 29 27 21 21 22 23 18
45 45 45 45 45 45 45 45 43 42 43 44 45 44 45 46 46 47 49 49 48 45 45 42 39 37 34 35 36 34 27 27 30 42 33 29 28 26 24 22 20 20 19
45 47 45 46 46 46 45 43 41 40 40 41 42 42 47 47 47 48 50 49 46 38 43 41 39 37 33 29 29 26 25 27 32 32 35 29 30 26 22 17 16 18 18
43 42 42 44 44 44 42 40 36 36 34 38 40 40 41 45 46 44 44 41 41 41 37 37 37 34 29 26 21 18 15 13 12 26 34 32 25 23 17 15 15 18 18
42 41 41 42 42 41 40 38 39 38 33 36 38 36 35 41 43 41 38 36 37 38 32 32 32 31 27 20 14 13 12 14 12 21 19 22 22 16 14 14 13 14 15
41 41 42 43 43 41 39 37 39 37 35 35 35 36 37 39 41 38 34 33 31 30 28 27 28 30 26 23 16 12 14 13 15 18 17 18 13 12 12 11 13 12 14
39 42 43 44 43 39 33 32 33 33 34 34 36 33 31 34 36 35 32 28 28 24 16 12 12 13 15 15 14 13 12 11 14 17 19 17 16 15 14 14 10 12 13
38 39 42 42 35 24 18 16 21 31 35 34 32 30 35 33 34 35 33 32 30 32 32 20 14 10 13 15 14 12 14 17 17 17 17 17 14 16 18 17 14 13 11
35 37 38 35 31 21 10 3 8 7 30 33 33 33 33 30 31 31 34 38 34 35 27 20 15 14 16 17 16 13 13 14 15 15 16 16 17 20 19 18 15 12 14
34 35 32 32 31 24 14 9 12 19 25 26 31 32 30 29 29 28 31 33 36 35 24 19 19 17 17 19 16 13 12 13 15 16 15 16 17 15 14 14 9 9 9
31 33 30 28 28 25 19 12 7 22 22 21 27 29 29 27 27 28 29 31 29 27 17 20 22 22 21 19 16 12 9 9 9 9 11 12 12 12 12 10 8 5 5
29 31 29 25 25 25 20 5 16 19 19 22 22 25 26 26 25 28 31 34 28 27 22 26 29 22 18 15 14 11 10 9 8 7 8 9 11 13 14 13 10 6 8
27 31 29 25 24 22 4 14 16 18 18 19 21 23 20 17 22 29 37 36 23 22 26 28 26 21 16 15 12 12 11 9 10 10 10 12 12 11 12 12 11 10 9
24 27 26 24 22 16 7 6 18 18 17 19 16 18 12 13 11 15 26 29 31 28 30 31 23 21 18 13 9 9 8 9 8 9 10 13 14 13 12 13 14 13 13
20 24 27 22 20 19 11 5 17 18 17 15 12 14 16 18 17 12 15 26 30 30 33 17 18 19 17 14 8 6 4 6 7 9 11 14 14 15 14 15 15 15 14
21 24 24 22 20 19 13 9 12 12 13 13 10 9 11 11 12 13 19 21 21 21 21 20 19 16 17 17 11 11 8 7 9 11 13 15 16 17 19 18 17 17 15
24 19 25 27 21 18 15 9 10 11 10 10 10 10 11 15 13 15 25 27 22 22 21 22 21 19 18 19 17 13 10 11 15 14 14 17 18 18 18 19 18 16 13
30 21 19 26 27 15 8 3 11 15 18 16 15 13 11 9 14 16 27 23 25 24 22 22 21 17 17 16 19 18 19 16 16 16 16 16 18 19 19 19 19 17 17
36 25 19 18 18 22 5 9 14 14 19 22 22 20 18 16 15 16 19 26 30 28 25 24 25 23 23 21 23 24 24 24 23 20 18 18 17 19 21 22 23 21 18
38 38 34 23 17 16 6 26 22 17 17 20 24 25 24 23 21 21 21 21 26 32 29 32 31 28 28 27 29 31 31 29 28 24 23 23 22 24 25 25 23 21 20
38 37 37 35 29 25 20 9 26 24 21 20 19 21 24 27 29 28 28 28 28 28 31 31 31 31 29 31 35 36 36 33 28 25 25 29 32 32 32 28 22 21 23
38 37 36 36 35 34 32 29 27 22 22 21 20 20 22 25 28 32 32 32 32 33 32 30 31 32 32 30 32 35 34 32 31 31 33 34 37 37 36 35 28 23 19
38 38 37 37 36 35 34 32 28 26 22 24 24 24 23 24 26 27 31 36 38 36 36 34 32 31 33 34 37 38 38 38 38 37 35 36 36 36 35 35 19 17 15
Wind_Direction
306 305 304 303 302 300 299 299 298 297 296 292 289 289 289 288 287 282 280 276 274 271 268 266 267 273 270 252 262 261 263 265 266 271 272 270 275 282 292 295 295 307 312
305 301 300 300 301 299 297 296 295 294 293 293 289 285 286 286 286 284 282 277 272 270 267 264 263 261 262 261 267 267 277 263 265 267 265 262 270 280 283 285 297 305 308
310 311 310 309 306 303 300 298 294 291 289 289 289 285 283 283 284 283 283 279 271 268 265 261 258 253 254 257 264 269 269 279 273 264 264 262 266 273 275 283 296 301 302
316 316 315 314 312 309 305 301 297 294 288 286 286 286 284 282 281 282 282 280 273 265 262 257 254 250 249 253 262 272 269 267 275 264 252 261 261 262 271 281 289 295 306
321 320 319 318 316 313 310 307 301 295 291 287 281 281 283 284 281 281 280 281 271 264 258 253 252 250 249 256 262 264 261 258 260 255 256 258 251 257 264 273 283 292 302
325 323 322 319 317 316 313 309 304 298 296 290 281 274 275 282 279 279 278 278 266 261 255 251 252 253 253 255 260 261 255 255 258 244 245 248 247 254 258 268 282 290 299
328 328 326 323 321 319 318 313 306 299 297 294 290 282 268 276 276 280 283 276 265 261 256 251 249 251 250 257 268 268 250 238 240 227 228 236 241 245 254 269 281 290 295
331 330 329 325 322 320 319 316 307 298 299 296 291 285 270 270 274 281 283 272 262 258 257 250 247 246 244 239 248 261 249 232 209 225 215 231 243 246 257 272 280 290 298
337 336 333 329 325 320 317 315 308 299 298 294 289 282 271 268 272 273 276 265 257 259 256 251 248 245 235 225 227 239 234 236 227 229 229 232 238 244 258 269 277 291 298
344 341 337 333 328 324 320 316 314 300 294 290 281 278 270 263 258 259 254 250 250 250 245 224 207 204 176 181 197 188 197 198 213 224 229 236 244 252 257 268 282 290 298
348 347 345 343 339 330 329 329 327 281 279 280 274 264 242 245 246 247 247 243 247 233 232 236 228 193 170 162 159 177 198 212 219 223 230 238 247 255 261 268 279 289 294
355 355 354 358 359 0 357 349 233 232 255 262 237 233 231 248 250 256 246 228 235 220 221 216 214 154 153 164 185 181 185 202 214 224 235 244 252 253 259 265 279 289 284
2 1 3 6 9 11 13 19 7 224 252 240 225 224 237 249 244 255 241 242 226 213 209 210 189 160 169 180 174 174 189 209 221 232 242 249 254 256 262 271 285 292 290
7 7 8 12 15 16 15 17 41 231 246 237 225 225 233 240 246 252 241 223 208 206 209 198 177 181 180 177 180 191 204 230 243 250 251 251 255 258 261 271 274 289 296
13 13 15 18 20 21 28 80 207 243 241 227 233 235 235 245 255 247 235 216 209 202 195 183 185 180 177 181 194 205 222 231 242 252 253 253 255 260 263 267 270 278 287
16 18 20 22 24 30 17 265 235 239 236 235 235 234 262 281 267 254 213 201 199 196 193 189 188 184 181 189 196 212 225 228 241 252 255 254 261 269 268 269 271 277 283
19 19 20 27 32 40 60 210 233 233 237 229 262 242 324 282 254 201 190 191 197 194 193 194 192 194 196 192 201 224 229 237 249 258 266 263 263 264 270 271 270 275 277
24 26 28 33 41 48 68 122 196 215 217 224 259 233 213 204 199 184 185 184 189 197 196 184 191 198 199 207 224 247 250 252 271 276 274 267 269 264 263 270 276 277 284
33 34 33 38 48 58 78 110 189 228 231 227 243 266 248 239 229 218 209 202 197 197 202 197 200 204 216 229 248 256 253 260 281 285 282 275 272 267 261 267 281 285 288
36 36 39 41 50 63 79 130 168 230 263 264 260 304 265 243 250 242 215 203 202 203 206 207 213 221 232 240 253 255 248 260 266 280 280 273 271 269 267 271 284 291 295
31 43 46 47 47 59 80 150 235 222 221 263 263 273 294 291 247 233 211 224 219 220 223 225 231 240 247 251 247 247 248 255 263 274 278 280 275 271 270 273 283 293 301
21 41 50 53 54 55 33 314 316 264 251 252 257 271 280 281 267 254 250 235 228 231 236 240 240 249 254 252 248 247 249 251 256 266 270 277 282 279 277 273 275 286 298
4 14 21 48 57 59 345 347 338 314 299 271 261 263 269 272 274 267 262 252 252 245 246 250 249 254 256 257 249 247 248 252 255 262 264 268 275 275 280 276 276 283 291
0 359 4 9 35 43 54 311 337 337 331 321 299 281 273 273 269 266 263 260 259 256 254 255 248 251 259 257 249 246 243 251 259 263 263 265 266 267 269 270 274 278 283
358 358 355 357 0 4 9 19 9 319 320 316 310 303 293 286 279 270 267 264 261 256 256 254 254 255 256 254 249 243 246 250 255 260 263 265 264 259 248 247 258 270 286
357 356 356 358 354 356 358 1 10 13 311 309 309 305 301 301 303 297 277 265 260 258 255 254 254 253 253 252 249 246 248 251 255 259 263 262 260 254 248 248 268 279 292